Cloud_Cover
0 0 0 5 0 5 5 27 98 56 50 11 6 60 80 62 18 5 100 100 62 100 76 15 58 66 1 17 27 13 31 38 15 64 53 5 5 97 56 12 27 62 50 70
0 0 0 0 1 5 100 92 99 94 48 69 5 5 70 91 27 32 97 99 100 100 100 92 100 100 4 3 5 9 27 44 5 82 79 73 59 84 100 100 100 90 32 30
0 0 0 0 5 24 99 77 100 88 63 94 5 31 17 63 42 94 99 75 100 100 100 100 100 98 95 5 47 1 21 45 10 9 5 38 84 33 95 78 5 70 57 5
0 0 0 0 5 7 100 65 5 79 15 88 23 96 95 57 5 5 74 100 100 98 100 100 100 100 100 47 69 1 28 37 30 5 37 13 60 96 85 31 100 64 63 5
0 0 0 0 5 5 87 100 69 51 83 83 66 48 100 88 41 14 100 79 100 74 100 100 100 100 100 100 25 6 30 57 37 14 7 11 5 23 52 100 92 100 100 88
0 0 0 0 0 0 1 37 37 88 28 92 60 70 100 70 98 91 21 88 99 100 100 100 100 100 100 100 15 5 7 43 41 48 11 13 5 5 5 47 100 100 46 33
0 0 0 0 0 0 0 9 99 98 98 100 50 77 99 87 100 100 30 93 100 100 99 100 98 100 97 71 31 5 5 9 17 21 18 24 7 5 5 5 97 100 100 100
4 0 2 0 0 5 0 5 98 100 100 100 35 100 100 84 100 100 86 49 27 24 44 71 96 98 100 78 8 64 42 5 12 30 30 8 40 90 5 5 5 100 86 92
54 5 5 5 5 1 30 0 5 4 95 10 88 90 85 100 100 100 79 75 9 5 100 83 98 78 99 100 100 24 52 5 5 52 67 5 5 61 97 5 5 24 100 100
3 5 5 5 5 4 3 4 2 1 1 37 99 22 100 100 100 85 100 42 85 11 26 100 100 100 94 95 96 59 46 37 44 100 5 31 11 54 100 6 5 5 6 25
36 12 5 5 5 33 0 0 0 2 2 80 100 100 16 35 86 100 100 100 100 78 68 71 100 100 100 100 55 94 96 100 100 100 92 5 5 30 100 37 5 5 5 70
79 43 23 5 11 5 10 13 4 0 22 0 9 100 11 98 50 99 100 100 100 100 100 100 100 100 100 100 84 93 23 50 48 84 80 48 14 5 42 100 39 14 86 34
100 57 61 48 8 5 5 5 4 5 5 53 4 99 1 100 100 96 70 100 100 100 89 100 100 100 100 100 100 100 13 5 8 48 80 100 44 5 5 13 7 5 4 5
100 100 100 100 100 100 58 7 5 25 74 80 23 26 51 84 100 100 81 5 65 100 100 99 100 100 100 100 98 98 98 22 93 13 18 10 76 3 0 5 5 5 5 4
94 100 100 100 91 72 100 63 84 78 21 75 100 56 10 78 40 100 100 88 2 0 48 100 100 100 100 100 100 100 100 96 13 12 7 5 5 45 3 0 1 21 36 40
100 100 76 100 98 100 100 100 100 100 100 85 5 5 4 0 2 0 20 3 75 36 5 8 100 100 100 100 100 100 100 100 85 14 10 6 5 3 5 2 0 0 4 5
100 100 93 100 100 96 85 100 100 100 100 86 100 4 2 3 0 2 5 4 0 4 10 5 4 60 8 21 84 90 83 86 100 100 100 100 70 47 44 11 86 7 6 4
100 100 100 100 99 36 100 99 100 100 100 96 68 93 7 5 4 3 5 5 2 0 0 0 0 0 3 5 5 5 5 5 52 100 99 53 100 100 100 49 20 18 22 43
5 19 100 100 100 96 76 100 100 100 100 87 96 30 5 10 83 6 2 4 5 3 0 0 0 0 0 0 0 0 0 3 5 12 47 30 27 20 58 89 99 93 100 100
7 5 5 12 99 100 100 97 100 18 98 100 100 28 100 5 5 10 6 14 33 6 4 0 0 0 0 0 0 0 0 0 7 4 31 17 25 24 31 91 100 100 100 98
6 4 4 6 13 27 100 100 95 5 73 93 100 52 5 5 5 3 5 93 100 100 45 5 0 0 0 0 0 0 0 0 0 0 0 1 0 13 69 80 98 100 100 91
17 80 44 5 11 78 22 91 100 81 84 96 100 100 64 5 5 5 4 4 5 7 5 5 5 3 0 1 0 0 0 0 0 0 0 1 35 55 46 88 47 43 73 77
5 7 56 92 99 85 70 90 100 98 100 100 100 100 100 95 48 18 5 8 5 5 5 4 5 5 4 0 0 0 0 0 0 0 12 33 95 96 82 71 83 100 95 95
99 15 5 7 30 91 93 22 76 23 25 78 96 100 100 99 85 96 100 98 6 4 4 0 2 2 1 0 0 0 0 0 0 0 5 23 36 41 49 60 85 100 100 100
70 39 22 29 96 57 22 8 96 52 30 5 5 5 24 5 5 5 5 5 5 5 5 5 5 3 0 0 0 0 0 0 0 0 0 0 11 44 43 56 73 82 100 100
32 9 26 94 100 37 30 5 58 100 100 98 95 30 5 5 5 5 16 42 5 5 5 5 5 1 0 0 0 1 0 0 0 0 0 4 5 10 61 84 100 83 82 100